Regional Weather Roundup
Issued by NWS

Home | Current Version | Previous Version | Graphics & Text | Print | Product List | Glossary On
Versions: 1 2 3 4 5 6 7 8 9 10 11 12 13 14 15 16 17 18 19 20 21 22 23 24 25 26 27 28 29 30 31 32 33 34 35 36 37 38 39 40 41 42 43 44 45 46 47 48 49 50
000
ASUS43 KMPX 261801
RWRMN
WEATHER ROUNDUP FOR MINNESOTA
NATIONAL WEATHER SERVICE TWIN CITIES/CHANHASSEN MN
100 PM CDT SUN MAR 26 2017


NOTE: "FAIR" INDICATES FEW OR NO CLOUDS BELOW 12,000 FEET WITH NO
SIGNIFICANT WEATHER AND/OR OBSTRUCTIONS TO VISIBILITY. N/A MEANS
CURRENT SKY AND/OR WEATHER CONDITIONS ARE NOT AVAILABLE.

MNZ060>063-068>070-261900-
   Twin Cities Metro

CITY           SKY/WX    TMP DP  RH WIND       PRES   REMARKS
TWIN CITIES    CLOUDY    40  35  83 VRB5      29.91F
6HR MIN TEMP:  36; 6HR MAX TEMP:  41;

ST PAUL        CLOUDY    41  38  89 N6        29.92F
CRYSTAL        CLOUDY    40  34  79 NE6       29.90F
LAKEVILLE      CLOUDY    37  37 100 N3        29.90F
EDEN PRAIRIE   CLOUDY    41  36  82 N7        29.90F
6HR MIN TEMP:  37; 6HR MAX TEMP:  42;

SOUTH ST PAUL  CLOUDY    40  37  89 NE3       29.91F
LAKE ELMO      CLOUDY    39  37  93 N3        29.91F
$$
MNZ001>005-007-008-013>017-022>024-027-028-261900-
   Northwest Minnesota

CITY           SKY/WX    TMP DP  RH WIND       PRES   REMARKS
BEMIDJI        CLOUDY    40  32  73 NE5       29.95F
HALLOCK        CLOUDY    37  36  93 S3        29.96F FOG
ROSEAU         MOSUNNY   39  36  87 W5        29.96S
WARROAD        CLOUDY    41  36  81 CALM      29.96F
THIEF RVR FALL CLOUDY    40  36  86 SW8       29.96F
CROOKSTON      CLOUDY    39  37  93 SW7       29.97S
FOSSTON        CLOUDY    45  36  70 CALM      29.95S
DETROIT LAKES  PTSUNNY   43  34  70 S6        29.95F
MOORHEAD       CLOUDY    41  37  87 S5        29.97R
PARK RAPIDS    CLOUDY    42  30  62 VRB3      29.94F
MAHNOMEN       FAIR      43  34  71 S5        29.94F
$$
MNZ006-009>011-018-025>026-261900-
   North Central Minnesota

CITY           SKY/WX    TMP DP  RH WIND       PRES   REMARKS
BAUDETTE       CLOUDY    43  34  70 CALM      29.96S
FLAG ISLAND    PTSUNNY   34  30  86 S7        29.96S WCI  28
INTL FALLS     PTSUNNY   41  32  70 CALM      29.96F
6HR MIN TEMP:  31; 6HR MAX TEMP:  42;

WASKISH        CLOUDY    41  34  75 NW6       29.96S
BIG FORK       CLOUDY    43  34  70 E3        29.95F
LONGVILLE      CLOUDY    39  32  75 NE3       29.95F
GRAND RAPIDS   CLOUDY    37  32  82 NW3       29.97F
CRANE LAKE     CLOUDY    37  30  75 NW5       29.98F
ORR            CLOUDY    39  28  65 CALM      29.93F
COOK           CLOUDY    39  30  70 E3        29.96S
WALKER         CLOUDY    36  32  85 SE5       29.96F
$$
MNZ012-019>021-037-261900-
   Northeast Minnesota

CITY           SKY/WX    TMP DP  RH WIND       PRES   REMARKS
DULUTH         CLOUDY    35  33  92 NE5       29.93F WCI  31
6HR MIN TEMP:  32; 6HR MAX TEMP:  35; 6HR PCP:  0.06;

ELY            CLOUDY    34  30  86 CALM      29.95F
HIBBING        CLOUDY    36  32  85 CALM      29.95S
EVELETH        CLOUDY    37  32  81 NW3       29.96F
DULUTH HARBOR  DRIZZLE   36  34  93 NE13      29.97F
TWO HARBORS    LGT RAIN  37  34  87 E6        29.93F
SILVER BAY     DRIZZLE   36  34  93 E5        29.94F
G MARAIS ARPRT DRIZZLE   30  27  86 CALM      29.94S
$$
MNZ029>031-032-039>041-046>048-054>057-064-261900-
   West Central Minnesota

CITY           SKY/WX    TMP DP  RH WIND       PRES   REMARKS
FERGUS FALLS   CLOUDY    43  34  70 CALM      29.98F
WHEATON        CLOUDY    39  36  87 CALM      29.97F
ALEXANDRIA     CLOUDY    43  34  70 N7        29.94F
ELBOW LAKE     CLOUDY    41  35  77 NE5       29.95F
WADENA         CLOUDY    41  34  75 N6        29.94F
GLENWOOD       CLOUDY    43  36  75 N7        29.94F
APPLETON       CLOUDY    43  37  81 CALM      29.95F
BENSON         CLOUDY    45  32  61 N5        29.96F
ORTONVILLE     CLOUDY    39  37  93 CALM      29.95F
MADISON        CLOUDY    43  43 100 N6        29.95F
WILLMAR        CLOUDY    43  37  81 N6        29.95S
$$
MNZ033>034-036-042>043-049>051-058-059-261900-
   Central Minnesota

CITY           SKY/WX    TMP DP  RH WIND       PRES   REMARKS
ST CLOUD       CLOUDY    40  36  86 N7        29.92F
6HR MIN TEMP:  33; 6HR MAX TEMP:  40; 6HR PCP:  0.03;

SAUK CENTRE    CLOUDY    40  34  78 NE9       29.93F
PAYNESVILLE      N/A     38  38 100 N7        29.94S
AITKIN         CLOUDY    39  32  75 N5        29.93F
PINE RIVER     CLOUDY    41  34  75 N7        29.97F
BRAINERD       CLOUDY    37  34  89 N7        29.95F
STAPLES        CLOUDY    39  32  75 NE6       29.94F
LONG PRAIRIE   CLOUDY    41  34  75 N7        29.93F
LITTLE FALLS   CLOUDY    36  34  93 N5        29.94F
LITCHFIELD     CLOUDY    41  37  87 N5        29.93S
BUFFALO        CLOUDY    39  35  84 N6        29.94S
MAPLE LAKE     CLOUDY    39  37  93 N5        29.93F
HUTCHINSON     CLOUDY    40  37  89 N5        29.94S
$$
MNZ037-044-045-052-053-261900-
   East Central Minnesota

CITY           SKY/WX    TMP DP  RH WIND       PRES   REMARKS
PRINCETON      CLOUDY    39  37  93 N5        29.93F
MORA           CLOUDY    36  34  93 NE3       29.94F
CAMBRIDGE      CLOUDY    41  36  81 N5        29.91F
RUSH CITY      CLOUDY    38  36  90 NE7       29.92F
MOOSE LAKE     CLOUDY    36  32  87 NE6       29.93S
CLOQUET        LGT RAIN  34  32  93 CALM      29.94S
MCGREGOR       CLOUDY    36  34  93 N3        29.95S
$$
MNZ071>073-080-081-089-090-097-098-261900-
   Southwest Minnesota

CITY           SKY/WX    TMP DP  RH WIND       PRES   REMARKS
MONTEVIDEO     CLOUDY    41  39  93 N5        29.96F
GRANITE FALLS  CLOUDY    42  38  85 N6        29.95F
CANBY          CLOUDY    40  39  94 CALM      29.95F
MARSHALL       CLOUDY    40  37  89 NE8       29.94F
REDWOOD FALLS  CLOUDY    42  35  76 NE6       29.93S
OLIVIA         PTSUNNY   41  36  81 NE5       29.93S
PIPESTONE      CLOUDY    41  34  75 NE7       29.91S
WINDOM         MOSUNNY   39  37  93 N10       29.91S
WORTHINGTON    CLOUDY    40  37  89 N12       29.91F
JACKSON        CLOUDY    39  36  87 N9        29.90F
TRACY          CLOUDY    40  38  92 N7        29.94S
SLAYTON        CLOUDY    38  37  97 N8        29.92F
$$
MNZ065>067-074>077-082>085-091>093-261900-
   South Central Minnesota

CITY           SKY/WX    TMP DP  RH WIND       PRES   REMARKS
MANKATO        CLOUDY    39  37  92 N6        29.91F FOG
NEW ULM        CLOUDY    39  36  87 N6        29.92S
ST JAMES       CLOUDY    39  37  93 CALM      29.92F
FAIRMONT       CLOUDY    40  38  93 N8        29.90F
GLENCOE        CLOUDY    40  38  93 N7        29.91F
FARIBAULT      CLOUDY    39  39 100 N3        29.90F
OWATONNA       CLOUDY    39  37  93 CALM      29.89F
WASECA         CLOUDY    39  36  87 N6        29.91F
ALBERT LEA     CLOUDY    39  37  93 N7        29.88S FOG
$$
MNZ078>079-086>088-094>096-261900-
   Southeast Minnesota

CITY           SKY/WX    TMP DP  RH WIND       PRES   REMARKS
ROCHESTER      CLOUDY    39  38  96 N8        29.87F FOG
6HR MIN TEMP:  34; 6HR MAX TEMP:  39; 6HR PCP: TRACE;

RED WING       CLOUDY    41  37  87 CALM      29.89F
STANTON        CLOUDY    40  38  91 NE6       29.89F
DODGE CENTER   CLOUDY    37  37 100 N7        29.87F FOG
WINONA         CLOUDY    39  37  93 N5        29.89F
AUSTIN         CLOUDY    39  37  93 N5        29.86F
PRESTON        CLOUDY    38  37  94 NE8       29.87F FOG
$$
ABBREVIATIONS USED IN REMARKS
   TC - TEMPERATURES IN CELSIUS
  WCI - WIND CHILL INDEX
   HX - HEAT INDEX
  VSB - VISIBILITY
$$




USA.gov is the U.S. government's official web portal to all federal, state and local government web resources and services.